Location: Unspecified
(0.0000°N, 0.0000°E)
Time: 04:04:32
(UTC+02:00)

Orbus 21S - Visible Passes

Search period start: 30 July 2015 00:00
Search period end: 09 August 2015 00:00
Orbit: 287 x 33319 km, 24.6° (Epoch: 28 July)

Date Brightness Start Highest point End Pass type
(mag) Time Alt. Az. Time Alt. Az. Time Alt. Az.
30 Jul 7.4 02:36:26 23° ESE 02:36:26 23° ESE 11:01:46 10° ENE visible
01 Aug 6.9 03:23:53 42° ESE 03:23:53 42° ESE 12:05:04 10° ENE visible
03 Aug 6.5 04:11:15 62° SSE 04:11:46 62° SE 13:02:07 10° ENE visible
05 Aug 6.4 04:58:33 64° SW 05:05:12 80° SSE 13:55:54 10° E visible
07 Aug 6.7 05:45:46 45° WSW 06:03:07 86° NNW 14:47:42 10° E visible
